Showing default

HAIYANG 3A, 58349

Orbit data source: Space-Track

HAIYANG 3A, 58349 is a Chinese payload satellite in SSO that was launched on Thu, 16 Nov 2023 UTC via a CHANG ZHENG 2C/YZ-1S launch vehicle from the Jiuquan Satellite Launch Center, China (JSC). Payload-class satellites include a variety of spacecraft equipped with specific instruments for various scientific and technological missions. These include communications satellites like Starlink; space stations such as the ISS; scientific satellites like the Hubble; Earth observation satellites from companies like Planet Labs, Umbra, and HawkEye 360; GPS; miniature CubeSats for education and research; and military/defense satellites.

Loading next visibility...
Identifier
58349, 2023-176A
Orbit
SSO
Country
Flag of CNCN / PRC
Related business
Manufacturer
DFH Shenzhen
Mission
Operational Civil Earth Obs Sci
Bus & Motor
CAST-968?, Unknown motor
Mass
~1,500 kg wet, ~1,500 kg dry
Launch date (UTC)
2023-11-16 (3 years ago)
Launch vehicle
CHANG ZHENG 2C/YZ-1S
Launch site
Jiuquan Satellite Launch Center, China (JSC)
Object type
Payload
Rocket body
Debris
Shape & HBR
Box + 2 Pan, 2.0 m
Radar Cross Section
2.315 m², Large (>1 m²)

Expand to show TLE details & history
Last TLE update: 23 hours ago

TLE from 23 hours ago
0 HAIYANG 3A
1 58349U 23176A   26172.49295964  .00000062  00000-0  37768-4 0  9997
2 58349  98.5465 250.4147 0009754  19.0445 341.1103 14.34123906135936
Epoch: 2026-06-21T11:49Z
TLE epoch observation values (Epoch: 2026-06-21T11:49:51.712Z)
Latitude
-0.00002°
Longitude
163.25679°
Altitude
774.314 km
Speed
7.47 km/s
True Right ascension
16h 41m 39s
True Declination
0° 00' 00"
Sunlit
Object was in full shadow at epoch
Visualization orbit readout
Latitude
Unknown
Longitude
Unknown
Altitude
Unknown
Speed
Unknown
Apparent Right ascension
Unknown
Apparent Declination
Unknown
Sunlit
N/A
Visualization observer readout
Local Sidereal Time
21:29:31
Azimuth
Unknown
Elevation
Unknown
Doppler factor
Unknown
Orbital elements
Apogee altitude
782.089 km
Perigee altitude
768.134 km
Semi-major axis
7,153.248 km
Eccentricity
0.00098
Inclination
98.5465°
RAAN
250.4147°
Arg. of periapsis
19.0445°
True anomaly
341.07407°
Mean anomaly
341.1103°
Eccentric anomaly
341.09219°
Mean motion
3.58747 °/min
Orbital period
100.35 mins
BSTAR
0.000037768
Loading maneuver chart data...
Computing Atmospheric mass density...
Loading historical data...
Loading historical data...
Loading historical data...
Loading historical data...
Loading historical data...
Loading historical data...
Loading historical data...
Other satellites on launch #176 in the year 2023 (2023-11-16 UTC)

Documentation

Showing up to 5 results
|